Location: Deep River
(46.0977°N, 77.4933°W)
Time: 01:54:17
(UTC-04:00)

N. Korean satellite - Visible Passes

Search period start: 18 October 2019 00:00
Search period end: 28 October 2019 00:00
Orbit: 455 x 508 km, 97.2° (Epoch: 16 October)

Date Brightness Start Highest point End Pass type
(mag) Time Alt. Az. Time Alt. Az. Time Alt. Az.
18 Oct 9.5 06:23:19 10° NE 06:26:12 22° E 06:29:04 10° SSE visible
19 Oct 10.4 05:59:23 10° ENE 06:00:41 12° E 06:02:01 10° ESE visible
20 Oct 10.1 19:18:25 10° SW 19:20:20 14° W 19:22:17 10° WNW visible
21 Oct 8.5 06:40:25 10° NNE 06:43:46 35° E 06:47:09 10° SSE visible
21 Oct 9.0 18:51:52 10° SSW 18:54:51 28° W 18:57:53 10° NW visible
22 Oct 9.8 06:15:43 10° NE 06:18:20 18° E 06:20:58 10° SE visible
24 Oct 7.4 06:57:40 10° NNE 07:01:17 59° E 07:04:55 10° S visible
24 Oct 9.9 19:10:02 10° SW 19:12:25 17° W 19:14:50 10° NW visible
25 Oct 8.9 06:32:40 10° NE 06:35:54 29° E 06:39:09 10° SSE visible
25 Oct 8.5 18:43:46 10° SSW 18:46:56 34° W 18:50:10 10° NNW visible
26 Oct 10.1 06:08:10 10° NE 06:10:25 15° E 06:12:42 10° SE visible
27 Oct 10.3 19:28:58 10° WSW 19:30:01 11° W 19:31:03 10° WNW visible
